Wind_Speed
27 49 67 71 71 72 73 86 90 91 91 84 86 84 88 89 94 97 96 98 101 102 99 97 98 97 94 92 89 77 76 73 75 76 77 71 70 70 74 70 69 68 67 66 62
12 21 44 66 70 71 72 74 80 88 92 95 89 85 86 90 88 87 94 101 103 105 102 104 102 103 98 98 93 83 78 66 74 80 78 79 72 73 75 74 72 73 72 64 60
18 18 20 35 60 70 71 74 75 81 89 96 95 90 90 90 91 90 93 99 100 105 105 103 104 105 102 100 98 96 81 75 74 76 75 72 67 69 72 69 71 71 69 64 65
23 25 28 29 33 47 66 71 74 76 82 93 103 101 102 98 95 98 98 102 106 106 103 109 114 111 105 105 102 102 98 94 89 87 80 76 75 74 72 64 67 69 63 63 65
25 27 33 36 38 42 49 60 71 76 80 84 96 99 110 110 112 102 102 102 102 104 104 110 109 110 109 109 109 109 103 104 102 99 93 88 81 75 71 65 66 64 62 64 64
29 31 32 39 44 48 50 54 61 69 76 83 87 91 97 106 114 114 106 103 106 106 107 108 108 109 110 108 111 106 108 106 101 95 97 97 88 86 76 77 75 68 66 68 70
31 34 37 38 43 50 54 59 63 66 71 77 84 91 93 102 107 117 118 113 109 108 107 106 109 112 109 106 108 106 106 105 101 100 100 96 87 78 73 71 70 72 73 76 79
37 39 40 41 43 47 54 60 66 71 75 78 82 86 94 103 108 113 119 121 120 117 115 114 113 111 108 106 106 107 107 103 95 98 94 99 90 80 80 79 76 78 80 85 82
39 37 39 41 44 47 53 58 65 71 78 85 89 91 95 100 107 113 117 121 125 126 125 129 121 113 112 107 105 99 99 96 94 93 97 98 85 85 88 92 88 86 86 82 77
34 33 33 36 41 45 49 53 60 70 75 83 93 99 105 106 105 109 117 119 120 125 131 130 130 129 118 111 103 98 93 92 93 95 99 102 90 85 88 91 89 88 81 74 71
32 33 36 38 43 46 49 54 59 68 75 84 92 101 109 113 116 114 116 118 123 124 126 129 132 129 124 119 116 111 102 97 96 94 93 89 83 79 83 87 80 76 73 71 74
32 35 37 42 44 47 53 57 61 64 69 72 81 97 110 113 119 120 122 118 120 123 127 128 122 126 125 130 126 120 115 110 105 108 105 97 84 80 84 81 79 78 82 84 81
37 39 40 41 48 53 57 59 63 66 68 69 69 71 74 86 106 117 121 123 124 121 122 126 122 125 127 128 122 125 125 119 115 113 108 107 96 93 88 87 87 86 84 85 81
36 35 40 47 52 54 54 58 61 63 68 72 73 64 65 70 86 101 106 111 122 127 123 118 120 121 123 119 120 119 122 124 121 122 116 115 103 103 95 96 92 90 85 78 80
32 36 44 48 50 51 55 57 58 63 70 64 55 50 50 56 67 78 96 103 106 116 123 120 116 116 120 118 118 113 114 115 116 110 108 102 96 87 98 88 83 80 80 80 78
36 40 43 44 49 53 57 57 59 63 62 53 49 45 39 43 54 62 77 92 99 105 112 114 126 122 115 117 115 111 109 108 110 107 98 92 88 76 81 79 77 73 69 66 63
40 43 41 50 54 56 56 57 59 64 63 47 45 41 38 39 45 51 63 78 92 93 98 111 116 123 124 116 112 109 108 104 103 99 89 87 82 73 80 75 73 62 63 64 62
41 44 52 55 54 59 58 58 60 64 58 48 38 37 34 34 38 47 53 61 75 88 87 98 109 114 121 121 114 108 104 101 98 91 81 83 72 67 69 68 65 63 62 61 60
43 47 56 55 58 58 62 57 57 61 53 44 38 33 31 29 34 41 44 48 59 69 84 92 98 103 110 116 118 113 107 100 94 88 79 71 61 57 58 59 57 57 52 49 46
48 52 57 60 60 61 65 57 58 58 52 42 36 32 28 25 28 33 38 40 49 58 69 89 88 91 100 105 109 113 110 105 97 87 75 64 55 47 49 46 46 42 42 38 35
51 54 56 62 62 62 68 60 59 56 52 41 36 31 27 22 24 27 32 36 42 50 57 68 80 85 92 92 99 107 109 107 101 91 76 64 53 44 48 40 35 34 31 29 28
47 49 54 61 61 61 65 57 56 57 55 46 38 33 28 23 20 23 27 32 34 42 46 55 69 85 86 86 92 96 100 101 97 88 79 66 54 50 55 41 35 36 33 31 27
52 50 53 61 62 63 67 62 54 57 56 51 43 37 30 23 20 19 24 28 31 36 42 50 61 72 76 80 80 82 87 88 88 88 79 69 58 66 59 47 39 36 33 32 27
51 54 58 62 65 59 65 65 60 60 58 55 46 39 31 24 18 16 19 23 26 29 37 44 51 63 71 73 75 69 73 75 79 79 75 64 62 67 62 50 41 36 34 32 31
53 55 58 63 68 64 64 62 58 57 59 58 48 39 32 21 17 11 15 17 22 27 31 37 44 54 63 63 67 68 65 63 64 71 74 70 69 70 63 54 45 39 34 31 35
55 59 62 64 66 70 64 65 60 56 56 59 50 38 32 21 14 12 8 9 16 21 26 34 39 45 50 54 60 64 63 58 60 61 65 70 72 68 64 57 47 41 37 30 27
56 60 60 63 66 69 66 64 56 55 55 57 51 40 29 20 15 12 8 8 14 18 24 26 33 38 40 42 52 56 57 57 58 59 61 67 70 67 61 56 52 45 37 31 27
Wind_Direction
245 237 232 232 233 233 232 227 232 232 230 230 234 235 235 235 236 237 237 240 240 242 241 242 241 240 240 244 246 246 250 252 249 247 248 249 251 253 257 258 260 265 269 267 271
296 250 236 233 235 236 235 236 232 234 231 230 232 234 236 239 240 241 241 242 244 242 243 243 243 241 240 243 246 247 247 248 243 247 252 254 255 258 260 263 269 270 269 273 270
274 269 260 244 237 238 240 239 238 234 235 231 229 231 235 238 239 240 240 240 241 243 241 243 246 245 242 244 244 246 244 241 245 250 251 254 254 255 261 266 266 265 266 262 266
271 261 255 248 241 241 239 241 240 240 236 236 233 235 236 238 239 243 242 242 242 243 243 246 244 245 245 244 245 245 245 246 246 247 252 255 253 258 265 269 266 265 266 267 270
274 270 261 254 248 244 240 241 242 241 241 239 235 239 239 238 241 240 242 242 243 245 247 247 246 246 245 247 248 249 246 246 248 250 250 252 257 259 262 261 269 270 267 269 269
271 271 267 258 252 250 247 244 242 243 244 243 240 239 238 239 239 239 237 240 242 243 246 248 247 248 246 246 248 249 247 245 247 249 253 255 256 256 261 263 262 263 264 267 269
273 271 269 264 256 252 252 251 249 247 245 244 244 243 240 239 240 238 237 237 239 242 245 245 245 245 245 246 247 248 247 247 249 250 250 253 252 259 258 260 260 262 264 267 270
286 277 273 268 263 258 255 254 252 250 249 248 245 243 242 241 239 240 239 240 239 240 240 243 245 245 245 246 244 246 247 247 250 253 251 251 250 256 257 256 257 259 263 268 271
291 281 276 272 269 266 263 259 256 253 251 249 248 246 244 243 241 240 241 238 240 241 240 241 240 244 245 246 243 247 248 248 248 249 251 253 251 253 253 255 257 261 265 268 271
286 284 282 281 277 274 271 268 265 259 255 253 249 247 245 245 242 241 241 240 240 240 237 241 243 241 242 245 247 248 246 246 245 248 248 250 248 247 252 255 258 262 265 267 268
290 291 295 294 292 289 285 283 277 274 261 256 253 250 247 245 243 242 240 241 239 240 239 241 241 242 245 243 242 243 243 244 243 246 247 250 246 247 250 254 259 263 266 267 271
298 302 300 299 299 298 296 296 290 284 280 271 261 253 252 248 246 243 242 241 239 239 240 241 241 241 242 245 245 241 241 242 244 244 243 246 252 248 254 254 259 264 268 269 271
303 305 304 304 309 307 301 299 298 291 287 282 274 266 258 250 250 249 246 242 242 241 239 239 239 240 241 243 245 243 242 244 244 248 248 251 248 249 254 255 258 265 268 267 269
311 311 312 315 312 312 309 306 301 296 292 291 288 281 268 254 245 241 246 244 243 242 242 239 238 239 242 242 244 245 245 245 246 249 248 251 250 250 256 258 260 265 263 263 267
315 315 316 318 321 322 319 314 309 307 303 301 293 281 267 257 248 238 239 240 240 236 241 242 241 240 242 242 243 241 243 245 247 248 249 252 252 251 255 258 258 256 259 263 270
323 320 323 329 332 332 330 322 319 313 313 313 303 292 273 259 251 243 236 236 236 235 235 234 237 239 238 240 241 241 243 244 246 248 249 251 254 251 254 252 254 257 260 264 265
326 328 333 339 340 338 336 331 325 329 322 317 307 298 283 266 253 245 238 235 233 235 233 232 233 234 236 238 239 240 241 242 245 248 250 250 253 254 252 255 259 260 257 258 262
330 331 337 341 340 341 340 339 337 332 326 321 314 302 287 273 259 251 241 235 234 234 232 231 232 231 233 235 236 239 240 241 244 245 246 249 252 251 253 253 255 258 260 260 263
330 330 338 340 342 343 345 344 339 335 332 327 324 311 301 283 266 254 247 238 234 232 231 231 230 231 232 232 233 234 238 239 240 240 241 247 246 245 249 254 253 254 255 257 260
334 331 336 341 342 346 346 346 342 341 339 334 332 325 309 293 273 260 251 239 233 229 228 230 229 230 231 230 232 233 233 235 238 238 239 239 240 243 246 244 250 249 247 248 250
335 334 338 342 343 347 350 346 343 344 343 340 338 335 324 307 280 262 251 241 232 230 227 228 229 227 229 229 230 230 230 232 234 236 235 232 234 230 233 245 241 233 230 232 236
340 343 345 345 345 346 349 348 345 345 346 345 343 340 337 320 298 273 253 245 236 231 227 222 228 228 226 226 227 228 230 230 230 231 232 230 225 223 227 233 225 218 224 228 230
347 348 347 349 352 349 350 348 350 346 349 351 345 341 337 330 310 284 257 245 237 231 221 220 221 227 229 227 227 226 226 227 228 227 227 225 218 221 229 229 222 220 220 220 226
347 346 349 351 352 352 353 349 350 349 350 351 346 340 337 328 319 292 271 250 239 231 227 219 216 221 224 222 224 224 226 224 223 223 220 214 211 217 226 226 220 217 216 221 226
347 349 350 353 351 352 355 352 349 352 349 350 346 342 338 331 325 300 278 259 240 231 225 220 216 217 223 217 216 216 218 216 219 221 216 210 210 217 221 221 219 217 217 220 235
343 346 347 351 350 352 354 354 351 349 351 348 347 345 340 336 332 320 301 265 240 226 222 219 214 216 219 219 209 209 209 206 208 214 212 207 215 216 217 217 214 213 213 209 219
339 342 346 349 351 351 353 354 353 349 349 351 350 350 345 342 341 328 303 260 230 211 210 213 212 210 212 208 205 201 200 198 200 204 203 201 213 210 211 210 211 211 205 211 217
Height
10680 10683 10689 10694 10699 10704 10710 10716 10721 10726 10731 10736 10741 10746 10752 10756 10761 10767 10768 10762 10765 10771 10781 10786 10792 10795 10805 10811 10815 10824 10838 10842 10838 10825 10816 10836 10837 10836 10837 10846 10849 10858 10862 10865 10868
10678 10677 10679 10684 10688 10692 10698 10703 10707 10711 10716 10721 10727 10732 10736 10741 10745 10747 10746 10749 10749 10758 10766 10770 10771 10775 10791 10795 10804 10814 10827 10829 10818 10809 10809 10820 10825 10820 10822 10837 10845 10846 10848 10856 10858
10676 10676 10675 10675 10678 10683 10687 10691 10695 10697 10700 10705 10710 10714 10719 10723 10725 10725 10731 10728 10732 10738 10745 10749 10751 10760 10773 10779 10792 10799 10817 10808 10807 10798 10796 10804 10817 10807 10811 10834 10831 10833 10837 10842 10847
10670 10669 10669 10669 10669 10670 10673 10677 10679 10682 10686 10688 10691 10697 10702 10706 10705 10704 10710 10712 10715 10721 10725 10729 10733 10742 10755 10762 10764 10778 10797 10796 10794 10789 10785 10791 10800 10811 10808 10816 10814 10819 10824 10829 10830
10661 10660 10659 10659 10660 10661 10661 10661 10663 10665 10666 10669 10674 10678 10683 10688 10680 10688 10692 10695 10694 10702 10705 10710 10713 10721 10736 10742 10741 10762 10777 10778 10779 10773 10779 10776 10788 10800 10810 10808 10799 10802 10812 10814 10817
10652 10650 10648 10647 10647 10646 10647 10647 10647 10645 10645 10648 10652 10657 10661 10665 10657 10665 10673 10674 10676 10681 10686 10688 10696 10699 10707 10720 10723 10744 10752 10757 10764 10768 10764 10765 10777 10783 10801 10786 10793 10793 10797 10801 10804
10642 10638 10636 10633 10632 10632 10631 10630 10630 10629 10629 10630 10631 10634 10637 10630 10635 10635 10645 10654 10655 10658 10662 10667 10671 10675 10691 10702 10711 10721 10729 10739 10755 10758 10756 10746 10769 10782 10776 10770 10775 10780 10789 10789 10792
10629 10625 10622 10620 10618 10616 10614 10612 10609 10609 10609 10608 10609 10609 10609 10606 10608 10607 10618 10624 10629 10636 10641 10643 10646 10658 10670 10680 10689 10697 10706 10727 10746 10733 10735 10718 10773 10770 10757 10758 10768 10768 10772 10777 10786
10616 10612 10609 10606 10604 10601 10598 10594 10588 10587 10586 10583 10581 10584 10578 10579 10581 10582 10586 10595 10601 10608 10615 10612 10623 10636 10645 10658 10667 10682 10702 10717 10710 10710 10707 10706 10771 10753 10739 10739 10755 10758 10763 10770 10776
10605 10601 10598 10594 10590 10587 10582 10578 10570 10564 10563 10556 10553 10554 10548 10546 10552 10557 10557 10564 10575 10574 10588 10590 10600 10611 10625 10639 10663 10674 10684 10687 10693 10691 10683 10698 10743 10730 10723 10727 10746 10749 10756 10762 10764
10593 10590 10586 10582 10576 10570 10565 10558 10553 10539 10536 10531 10525 10521 10517 10517 10517 10523 10521 10534 10541 10548 10558 10564 10573 10598 10611 10621 10635 10646 10658 10666 10672 10675 10670 10690 10715 10718 10715 10719 10734 10742 10747 10750 10750
10584 10580 10575 10569 10563 10556 10547 10537 10528 10518 10505 10500 10493 10488 10481 10485 10487 10492 10491 10504 10509 10521 10526 10535 10562 10576 10582 10589 10608 10621 10635 10647 10652 10651 10658 10669 10703 10712 10712 10719 10724 10729 10734 10737 10738
10574 10568 10563 10556 10548 10539 10527 10516 10504 10491 10481 10469 10458 10454 10453 10457 10456 10453 10461 10478 10482 10492 10503 10516 10537 10543 10554 10566 10581 10596 10610 10624 10632 10628 10648 10659 10688 10696 10704 10711 10715 10722 10722 10722 10724
10564 10558 10551 10544 10533 10521 10508 10496 10482 10468 10456 10442 10427 10420 10413 10415 10413 10414 10423 10440 10449 10466 10474 10494 10511 10520 10528 10548 10559 10574 10586 10596 10612 10613 10639 10641 10672 10677 10691 10698 10708 10708 10706 10710 10710
10555 10549 10541 10530 10518 10505 10490 10474 10460 10445 10428 10414 10399 10390 10385 10383 10380 10385 10392 10401 10412 10429 10441 10482 10490 10499 10510 10526 10530 10556 10563 10575 10584 10601 10615 10635 10648 10688 10667 10687 10684 10686 10694 10699 10700
10548 10538 10531 10520 10506 10491 10475 10458 10441 10426 10405 10390 10374 10367 10363 10361 10360 10362 10368 10373 10379 10397 10414 10446 10450 10464 10487 10493 10513 10532 10544 10558 10568 10583 10605 10623 10633 10667 10656 10660 10666 10678 10689 10690 10689
10538 10528 10519 10507 10493 10479 10462 10444 10425 10404 10384 10376 10360 10352 10346 10343 10341 10342 10345 10353 10362 10375 10398 10410 10424 10445 10457 10475 10492 10512 10528 10543 10555 10570 10606 10605 10626 10648 10624 10652 10657 10671 10673 10675 10677
10529 10518 10508 10495 10481 10466 10448 10430 10410 10393 10375 10360 10351 10339 10332 10328 10328 10326 10328 10340 10349 10363 10383 10387 10399 10420 10433 10457 10475 10494 10510 10529 10545 10564 10584 10594 10622 10621 10614 10636 10648 10652 10657 10660 10663
10520 10509 10498 10484 10470 10454 10438 10420 10405 10387 10369 10353 10340 10330 10320 10317 10314 10313 10318 10327 10334 10347 10363 10365 10378 10398 10415 10433 10453 10472 10492 10509 10526 10550 10569 10594 10607 10604 10613 10625 10634 10641 10643 10647 10654
10511 10499 10487 10475 10460 10444 10427 10410 10394 10379 10360 10346 10334 10323 10312 10308 10304 10305 10307 10314 10320 10329 10337 10346 10366 10383 10392 10414 10437 10454 10471 10486 10510 10536 10564 10587 10599 10600 10605 10615 10626 10631 10632 10640 10644
10505 10493 10479 10464 10448 10434 10419 10400 10384 10372 10355 10341 10328 10318 10308 10301 10297 10296 10297 10300 10307 10313 10325 10337 10353 10365 10371 10398 10415 10429 10451 10472 10496 10522 10553 10576 10596 10592 10586 10612 10619 10622 10625 10631 10635
10500 10487 10474 10460 10443 10427 10413 10399 10381 10363 10346 10331 10321 10312 10303 10296 10291 10288 10288 10289 10297 10302 10314 10327 10333 10341 10358 10378 10390 10410 10433 10457 10485 10516 10541 10566 10585 10581 10570 10600 10610 10614 10618 10623 10629
10491 10482 10470 10457 10439 10418 10401 10387 10376 10359 10343 10327 10316 10307 10299 10292 10286 10283 10281 10282 10286 10292 10299 10308 10319 10332 10347 10364 10380 10403 10421 10449 10476 10498 10528 10553 10570 10555 10569 10590 10599 10607 10613 10617 10622
10485 10473 10461 10448 10434 10419 10401 10381 10364 10349 10336 10322 10312 10301 10293 10287 10283 10279 10276 10276 10280 10285 10290 10297 10308 10318 10325 10350 10369 10394 10412 10437 10459 10485 10513 10543 10547 10546 10563 10582 10594 10601 10608 10613 10616
10479 10468 10455 10441 10423 10410 10396 10381 10364 10351 10333 10321 10309 10297 10289 10282 10278 10276 10273 10274 10275 10278 10282 10290 10299 10307 10316 10336 10358 10377 10399 10424 10451 10472 10496 10519 10525 10531 10555 10571 10585 10595 10601 10609 10610
10473 10460 10445 10435 10420 10405 10391 10376 10360 10346 10335 10318 10307 10295 10285 10278 10274 10272 10271 10270 10271 10274 10279 10283 10291 10300 10311 10327 10346 10365 10388 10414 10437 10457 10482 10503 10504 10525 10546 10564 10577 10586 10594 10602 10606
10466 10456 10444 10431 10417 10401 10387 10375 10362 10345 10333 10320 10305 10293 10283 10276 10272 10269 10267 10266 10266 10268 10272 10280 10289 10295 10305 10322 10339 10360 10384 10407 10427 10446 10467 10489 10489 10516 10537 10554 10566 10578 10589 10596 10600